CXA975 ZSQD-ZLXY

Flight info

Callsign CXA975
Flight time 2h 34m
Altitude 36100
Route ZSQD WFG W103 MUMUN W4 SHX
Aircraft B788/H-V/N

Departure

Time 2026-04-26 01:26
Airport Qingdao Jiaodong International Airport (ZSQD)

Arrival

Time 2026-04-26 04:00
Airport Xi'an Xianyang International Airport (ZLXY)
Time Latitude Longitude Altitude Speed Heading
2026-04-26 01:04 36.36592 120.08739 41 ft 0 kts 252°
2026-04-26 01:16 36.36592 120.08741 40 ft 2 kts 252°
2026-04-26 01:17 36.36597 120.08760 39 ft 2 kts 252°
2026-04-26 01:17 36.36602 120.08779 40 ft 2 kts 252°
2026-04-26 01:17 36.36607 120.08798 39 ft 2 kts 252°
2026-04-26 01:17 36.36612 120.08818 38 ft 2 kts 252°
2026-04-26 01:18 36.36617 120.08837 39 ft 2 kts 252°
2026-04-26 01:18 36.36618 120.08850 38 ft 0 kts 343°
2026-04-26 01:18 36.36619 120.08850 38 ft 0 kts 343°
2026-04-26 01:19 36.36622 120.08849 40 ft 1 kts 343°
2026-04-26 01:19 36.36626 120.08851 39 ft 1 kts
2026-04-26 01:19 36.36629 120.08854 42 ft 1 kts 19°
2026-04-26 01:19 36.36632 120.08862 42 ft 3 kts 47°
2026-04-26 01:20 36.36654 120.08918 40 ft 11 kts 65°
2026-04-26 01:20 36.36693 120.09007 42 ft 12 kts 58°
2026-04-26 01:20 36.36737 120.09095 42 ft 12 kts 61°
2026-04-26 01:20 36.36771 120.09192 42 ft 12 kts 71°
2026-04-26 01:21 36.36798 120.09293 41 ft 12 kts 72°
2026-04-26 01:21 36.36825 120.09396 41 ft 13 kts 72°
2026-04-26 01:21 36.36851 120.09500 41 ft 13 kts 73°
2026-04-26 01:21 36.36826 120.09593 41 ft 11 kts 141°
2026-04-26 01:22 36.36753 120.09633 41 ft 12 kts 161°
2026-04-26 01:22 36.36668 120.09667 40 ft 15 kts 163°
2026-04-26 01:22 36.36552 120.09713 41 ft 20 kts 163°
2026-04-26 01:22 36.36408 120.09769 41 ft 23 kts 161°
2026-04-26 01:23 36.36241 120.09837 41 ft 27 kts 162°
2026-04-26 01:23 36.36053 120.09911 41 ft 30 kts 162°
2026-04-26 01:23 36.35847 120.09993 42 ft 31 kts 162°
2026-04-26 01:23 36.35647 120.10074 41 ft 29 kts 162°
2026-04-26 01:24 36.35461 120.10148 42 ft 27 kts 162°
2026-04-26 01:24 36.35286 120.10218 41 ft 26 kts 163°
2026-04-26 01:24 36.35119 120.10279 41 ft 24 kts 163°
2026-04-26 01:24 36.34987 120.10371 40 ft 21 kts 111°
2026-04-26 01:25 36.35046 120.10495 40 ft 16 kts 25°
2026-04-26 01:25 36.35154 120.10484 40 ft 16 kts 344°
2026-04-26 01:25 36.35333 120.10416 39 ft 54 kts 342°
2026-04-26 01:25 36.35939 120.10187 43 ft 126 kts 343°
2026-04-26 01:26 36.36981 120.09764 47 ft 187 kts 343°
2026-04-26 01:26 36.38340 120.09282 662 ft 212 kts 346°
2026-04-26 01:26 36.39652 120.08757 2190 ft 187 kts 334°
2026-04-26 01:26 36.40917 120.08177 2805 ft 206 kts 336°
2026-04-26 01:27 36.42379 120.07617 3171 ft 233 kts 339°
2026-04-26 01:27 36.44003 120.06997 3649 ft 250 kts 339°
2026-04-26 01:27 36.45667 120.06345 4441 ft 252 kts 339°
2026-04-26 01:27 36.47351 120.05674 5176 ft 256 kts 339°
2026-04-26 01:28 36.49044 120.05003 5906 ft 259 kts 339°
2026-04-26 01:28 36.50769 120.04320 6651 ft 260 kts 339°
2026-04-26 01:28 36.52505 120.03632 7331 ft 263 kts 339°
2026-04-26 01:28 36.54244 120.02943 8083 ft 262 kts 340°
2026-04-26 01:29 36.55986 120.02253 8785 ft 263 kts 340°
2026-04-26 01:29 36.57735 120.01557 9470 ft 264 kts 341°
2026-04-26 01:29 36.59493 120.00859 10128 ft 265 kts 341°
2026-04-26 01:29 36.61240 120.00165 10727 ft 267 kts 341°
2026-04-26 01:30 36.63017 119.99460 11317 ft 269 kts 341°
2026-04-26 01:30 36.64803 119.98749 11889 ft 271 kts 341°
2026-04-26 01:30 36.66625 119.98024 12315 ft 285 kts 341°
2026-04-26 01:30 36.68619 119.97228 12398 ft 316 kts 341°
2026-04-26 01:31 36.70808 119.96357 12494 ft 343 kts 341°
2026-04-26 01:31 36.73094 119.95447 13362 ft 344 kts 342°
2026-04-26 01:31 36.75374 119.94539 14093 ft 348 kts 341°
2026-04-26 01:31 36.77695 119.93611 14779 ft 351 kts 340°
2026-04-26 01:32 36.79868 119.92236 15457 ft 353 kts 322°
2026-04-26 01:32 36.81570 119.90032 16165 ft 354 kts 303°
2026-04-26 01:32 36.82612 119.87253 16860 ft 357 kts 285°
2026-04-26 01:32 36.82874 119.84165 17581 ft 360 kts 267°
2026-04-26 01:33 36.82356 119.81128 18240 ft 365 kts 255°
2026-04-26 01:33 36.81603 119.78085 18812 ft 367 kts 254°
2026-04-26 01:33 36.80802 119.75046 19398 ft 369 kts 254°
2026-04-26 01:33 36.80009 119.71990 19977 ft 371 kts 255°
2026-04-26 01:34 36.79230 119.68904 20540 ft 373 kts 255°
2026-04-26 01:34 36.78446 119.65812 21105 ft 376 kts 255°
2026-04-26 01:34 36.77646 119.62697 21635 ft 378 kts 255°
2026-04-26 01:34 36.76837 119.59555 22125 ft 381 kts 255°
2026-04-26 01:35 36.76033 119.56421 22650 ft 383 kts 255°
2026-04-26 01:35 36.75217 119.53238 23154 ft 386 kts 255°
2026-04-26 01:35 36.74395 119.50042 23653 ft 388 kts 255°
2026-04-26 01:35 36.73565 119.46825 24059 ft 390 kts 255°
2026-04-26 01:36 36.72731 119.43595 24447 ft 392 kts 255°
2026-04-26 01:36 36.71893 119.40347 24817 ft 395 kts 255°
2026-04-26 01:36 36.71058 119.37118 25193 ft 397 kts 255°
2026-04-26 01:37 36.69351 119.30533 25909 ft 401 kts 255°
2026-04-26 01:37 36.68490 119.27215 26274 ft 403 kts 255°
2026-04-26 01:37 36.67622 119.23875 26641 ft 405 kts 255°
2026-04-26 01:37 36.66750 119.20525 27010 ft 407 kts 255°
2026-04-26 01:38 36.65874 119.17164 27347 ft 409 kts 255°
2026-04-26 01:38 36.65142 119.13743 27667 ft 409 kts 263°
2026-04-26 01:38 36.64898 119.10214 27995 ft 409 kts 272°
2026-04-26 01:38 36.65130 119.06689 28304 ft 409 kts 278°
2026-04-26 01:39 36.65472 119.03198 28629 ft 412 kts 278°
2026-04-26 01:39 36.65828 118.99653 28947 ft 414 kts 278°
2026-04-26 01:39 36.66193 118.96078 29266 ft 416 kts 278°
2026-04-26 01:39 36.66553 118.92497 29577 ft 418 kts 278°
2026-04-26 01:40 36.66910 118.88899 29899 ft 420 kts 278°
2026-04-26 01:40 36.67269 118.85283 30169 ft 421 kts 278°
2026-04-26 01:40 36.67629 118.81653 30457 ft 422 kts 278°
2026-04-26 01:40 36.67991 118.78007 30737 ft 423 kts 278°
2026-04-26 01:41 36.68350 118.74366 31015 ft 424 kts 278°
2026-04-26 01:41 36.68704 118.70755 31281 ft 425 kts 278°
2026-04-26 01:41 36.69063 118.67093 31550 ft 426 kts 278°
2026-04-26 01:41 36.69422 118.63415 31791 ft 428 kts 278°
2026-04-26 01:42 36.69782 118.59719 32042 ft 429 kts 278°
2026-04-26 01:42 36.70141 118.56017 32289 ft 430 kts 278°
2026-04-26 01:42 36.70499 118.52313 32544 ft 431 kts 278°
2026-04-26 01:42 36.70858 118.48595 32772 ft 432 kts 278°
2026-04-26 01:43 36.71215 118.44877 32998 ft 433 kts 278°
2026-04-26 01:43 36.71573 118.41138 33225 ft 434 kts 278°
2026-04-26 01:43 36.71930 118.37391 33437 ft 435 kts 278°
2026-04-26 01:43 36.72287 118.33639 33636 ft 437 kts 278°
2026-04-26 01:44 36.72639 118.29924 33852 ft 438 kts 278°
2026-04-26 01:44 36.72997 118.26141 34033 ft 439 kts 278°
2026-04-26 01:44 36.73353 118.22351 34199 ft 440 kts 278°
2026-04-26 01:44 36.73717 118.18568 34411 ft 439 kts 278°
2026-04-26 01:45 36.74112 118.14798 34642 ft 438 kts 278°
2026-04-26 01:45 36.74507 118.11035 34885 ft 437 kts 278°
2026-04-26 01:45 36.74884 118.07278 35136 ft 436 kts 278°
2026-04-26 01:45 36.75256 118.03520 35322 ft 437 kts 278°
2026-04-26 01:46 36.75635 117.99764 35534 ft 436 kts 278°
2026-04-26 01:46 36.76015 117.96005 35738 ft 436 kts 278°
2026-04-26 01:46 36.76391 117.92242 35866 ft 438 kts 278°
2026-04-26 01:47 36.77138 117.84708 35919 ft 442 kts 278°
2026-04-26 01:47 36.77764 117.78385 35917 ft 440 kts 278°
2026-04-26 01:48 36.78632 117.69538 35922 ft 439 kts 278°
2026-04-26 01:48 36.79244 117.63263 35917 ft 439 kts 278°
2026-04-26 01:49 36.79979 117.55680 35909 ft 439 kts 278°
2026-04-26 01:49 36.80708 117.48112 35911 ft 439 kts 278°
2026-04-26 01:50 36.81432 117.40540 35912 ft 440 kts 278°
2026-04-26 01:50 36.82151 117.32960 35902 ft 440 kts 278°
2026-04-26 01:51 36.82862 117.25420 35902 ft 440 kts 278°
2026-04-26 01:51 36.83112 117.17793 35907 ft 442 kts 270°
2026-04-26 01:52 36.82900 117.10119 35899 ft 442 kts 270°
2026-04-26 01:52 36.82676 117.02447 35899 ft 442 kts 270°
2026-04-26 01:53 36.82451 116.94779 35877 ft 442 kts 271°
2026-04-26 01:53 36.82220 116.87112 35887 ft 442 kts 270°
2026-04-26 01:54 36.81984 116.79426 35912 ft 443 kts 271°
2026-04-26 01:54 36.81742 116.71739 35914 ft 444 kts 271°
2026-04-26 01:55 36.81497 116.64074 35913 ft 444 kts 271°
2026-04-26 01:55 36.81245 116.56365 35908 ft 444 kts 271°
2026-04-26 01:56 36.80988 116.48691 35903 ft 441 kts 271°
2026-04-26 01:56 36.80729 116.41050 35902 ft 441 kts 271°
2026-04-26 01:57 36.80463 116.33350 35904 ft 442 kts 271°
2026-04-26 01:57 36.80193 116.25665 35906 ft 443 kts 271°
2026-04-26 01:58 36.79937 116.17978 35907 ft 442 kts 271°
2026-04-26 01:58 36.79672 116.10376 35898 ft 441 kts 271°
2026-04-26 01:59 36.79231 116.02728 35917 ft 444 kts 263°
2026-04-26 01:59 36.77246 115.95356 35918 ft 457 kts 247°
2026-04-26 02:00 36.74197 115.88377 35906 ft 458 kts 247°
2026-04-26 02:00 36.71120 115.81422 35906 ft 457 kts 247°
2026-04-26 02:01 36.68180 115.74766 35907 ft 456 kts 247°
2026-04-26 02:01 36.65111 115.67840 35899 ft 456 kts 247°
2026-04-26 02:02 36.62037 115.60917 35892 ft 457 kts 247°
2026-04-26 02:02 36.58948 115.53970 35896 ft 458 kts 247°
2026-04-26 02:03 36.55989 115.47336 35897 ft 457 kts 247°
2026-04-26 02:03 36.52890 115.40399 35895 ft 456 kts 247°
2026-04-26 02:04 36.49804 115.33504 35889 ft 457 kts 247°
2026-04-26 02:04 36.46710 115.26609 35892 ft 456 kts 247°
2026-04-26 02:05 36.43619 115.19732 35896 ft 456 kts 247°
2026-04-26 02:05 36.40519 115.12852 35889 ft 455 kts 247°
2026-04-26 02:06 36.37452 115.06057 35870 ft 455 kts 247°
2026-04-26 02:06 36.34404 114.99319 35888 ft 457 kts 248°
2026-04-26 02:07 36.31251 114.92359 35890 ft 459 kts 248°
2026-04-26 02:07 36.28117 114.85464 35891 ft 459 kts 248°
2026-04-26 02:08 36.25046 114.78713 35887 ft 458 kts 248°
2026-04-26 02:08 36.21940 114.71903 35893 ft 457 kts 248°
2026-04-26 02:09 36.19239 114.65991 35889 ft 456 kts 248°
2026-04-26 02:09 36.16522 114.60053 35889 ft 457 kts 248°
2026-04-26 02:10 36.13396 114.53239 35886 ft 459 kts 248°
2026-04-26 02:10 36.10233 114.46356 35886 ft 460 kts 248°
2026-04-26 02:11 36.07128 114.39614 35862 ft 459 kts 248°
2026-04-26 02:11 36.03953 114.32733 35884 ft 457 kts 248°
2026-04-26 02:12 36.00805 114.25924 35875 ft 455 kts 248°
2026-04-26 02:12 35.97653 114.19118 35878 ft 457 kts 248°
2026-04-26 02:13 35.94570 114.12275 35886 ft 453 kts 252°
2026-04-26 02:13 35.92029 114.05455 35879 ft 453 kts 252°
2026-04-26 02:14 35.89013 113.98483 35883 ft 456 kts 250°
2026-04-26 02:14 35.86160 113.91525 35878 ft 455 kts 251°
2026-04-26 02:15 35.83237 113.84573 35889 ft 456 kts 250°
2026-04-26 02:15 35.80329 113.77617 35883 ft 455 kts 251°
2026-04-26 02:16 35.77428 113.70703 35905 ft 457 kts 251°
2026-04-26 02:16 35.74505 113.63759 35899 ft 457 kts 251°
2026-04-26 02:17 35.71590 113.56831 35923 ft 458 kts 251°
2026-04-26 02:17 35.68643 113.49869 35918 ft 459 kts 251°
2026-04-26 02:18 35.65695 113.42892 35926 ft 459 kts 251°
2026-04-26 02:18 35.62792 113.36058 35930 ft 454 kts 251°
2026-04-26 02:19 35.59849 113.29119 35922 ft 458 kts 251°
2026-04-26 02:19 35.56878 113.22155 35928 ft 460 kts 251°
2026-04-26 02:20 35.54014 113.15445 35921 ft 459 kts 251°
2026-04-26 02:20 35.50988 113.08360 35931 ft 458 kts 251°
2026-04-26 02:21 35.48024 113.01453 35929 ft 457 kts 251°
2026-04-26 02:21 35.45064 112.94550 35903 ft 456 kts 250°
2026-04-26 02:22 35.42115 112.87703 35920 ft 454 kts 250°
2026-04-26 02:22 35.39166 112.80857 35924 ft 454 kts 250°
2026-04-26 02:23 35.36208 112.74014 35930 ft 454 kts 250°
2026-04-26 02:23 35.33265 112.67216 35928 ft 454 kts 250°
2026-04-26 02:24 35.30309 112.60401 35915 ft 453 kts 250°
2026-04-26 02:24 35.27354 112.53602 35931 ft 452 kts 250°
2026-04-26 02:25 35.24384 112.46788 35929 ft 454 kts 250°
2026-04-26 02:25 35.21516 112.40220 35923 ft 452 kts 250°
2026-04-26 02:26 35.18929 112.34294 35922 ft 452 kts 250°
2026-04-26 02:26 35.15916 112.27420 35922 ft 451 kts 249°
2026-04-26 02:27 35.12976 112.20720 35895 ft 451 kts 249°
2026-04-26 02:27 35.10026 112.14017 35919 ft 448 kts 249°
2026-04-26 02:28 35.07048 112.07255 35917 ft 448 kts 249°
2026-04-26 02:28 35.04348 112.01140 35902 ft 447 kts 249°
2026-04-26 02:29 35.01586 111.94897 35932 ft 449 kts 249°
2026-04-26 02:29 34.98621 111.88210 35915 ft 447 kts 249°
2026-04-26 02:30 34.95654 111.81524 35947 ft 447 kts 249°
2026-04-26 02:30 34.92713 111.74916 35921 ft 444 kts 249°
2026-04-26 02:31 34.89758 111.68280 35923 ft 448 kts 249°
2026-04-26 02:31 34.86768 111.61589 35678 ft 451 kts 249°
2026-04-26 02:31 34.85494 111.58736 35334 ft 453 kts 249°
2026-04-26 02:32 34.84401 111.56296 35053 ft 451 kts 249°
2026-04-26 02:32 34.83594 111.54499 34846 ft 450 kts 249°
2026-04-26 02:32 34.82074 111.51110 34455 ft 449 kts 249°
2026-04-26 02:32 34.80584 111.47781 34078 ft 453 kts 248°
2026-04-26 02:33 34.79158 111.44600 33697 ft 455 kts 248°
2026-04-26 02:33 34.77737 111.41443 33299 ft 456 kts 248°
2026-04-26 02:33 34.76550 111.38812 32968 ft 457 kts 248°
2026-04-26 02:33 34.75138 111.35676 32610 ft 458 kts 248°
2026-04-26 02:34 34.73698 111.32476 32228 ft 460 kts 248°
2026-04-26 02:34 34.72778 111.30433 32004 ft 461 kts 248°
2026-04-26 02:34 34.71856 111.28391 31776 ft 462 kts 248°
2026-04-26 02:34 34.70695 111.25822 31491 ft 462 kts 248°
2026-04-26 02:35 34.69395 111.22950 31158 ft 461 kts 248°
2026-04-26 02:35 34.67836 111.19506 30769 ft 459 kts 248°
2026-04-26 02:35 34.66294 111.16097 30400 ft 457 kts 247°
2026-04-26 02:35 34.64764 111.12715 30003 ft 456 kts 247°
2026-04-26 02:36 34.63233 111.09345 29577 ft 455 kts 247°
2026-04-26 02:36 34.61709 111.05993 29145 ft 452 kts 247°
2026-04-26 02:36 34.60196 111.02664 28709 ft 449 kts 247°
2026-04-26 02:36 34.58689 110.99352 28276 ft 446 kts 247°
2026-04-26 02:37 34.57191 110.96061 27867 ft 444 kts 247°
2026-04-26 02:37 34.55701 110.92793 27455 ft 441 kts 247°
2026-04-26 02:37 34.54215 110.89537 27061 ft 439 kts 247°
2026-04-26 02:37 34.52741 110.86309 26658 ft 437 kts 247°
2026-04-26 02:38 34.51272 110.83095 26263 ft 435 kts 247°
2026-04-26 02:38 34.49809 110.79897 25867 ft 432 kts 246°
2026-04-26 02:38 34.48352 110.76716 25479 ft 430 kts 246°
2026-04-26 02:38 34.46903 110.73557 25111 ft 428 kts 246°
2026-04-26 02:39 34.45479 110.70451 24737 ft 426 kts 246°
2026-04-26 02:39 34.44037 110.67314 24359 ft 427 kts 246°
2026-04-26 02:39 34.42596 110.64180 24002 ft 425 kts 246°
2026-04-26 02:39 34.41163 110.61063 23645 ft 423 kts 246°
2026-04-26 02:40 34.39733 110.57955 23243 ft 421 kts 246°
2026-04-26 02:40 34.38312 110.54877 22797 ft 417 kts 246°
2026-04-26 02:40 34.36908 110.51826 22410 ft 413 kts 246°
2026-04-26 02:40 34.35507 110.48792 21988 ft 412 kts 246°
2026-04-26 02:41 34.34109 110.45770 21587 ft 409 kts 245°
2026-04-26 02:41 34.32724 110.42773 21183 ft 407 kts 245°
2026-04-26 02:41 34.31344 110.39791 20786 ft 404 kts 245°
2026-04-26 02:41 34.29990 110.36875 20410 ft 400 kts 245°
2026-04-26 02:42 34.28629 110.33940 20016 ft 399 kts 245°
2026-04-26 02:42 34.27278 110.31020 19617 ft 397 kts 244°
2026-04-26 02:42 34.25929 110.28114 19244 ft 396 kts 245°
2026-04-26 02:42 34.24575 110.25209 18882 ft 394 kts 245°
2026-04-26 02:43 34.21903 110.19465 18161 ft 389 kts 245°
2026-04-26 02:43 34.20578 110.16618 17728 ft 388 kts 245°
2026-04-26 02:43 34.19256 110.13785 17315 ft 387 kts 244°
2026-04-26 02:44 34.17933 110.10953 16895 ft 387 kts 244°
2026-04-26 02:44 34.16613 110.08126 16488 ft 386 kts 244°
2026-04-26 02:44 34.15313 110.05342 16112 ft 385 kts 244°
2026-04-26 02:44 34.13996 110.02526 15716 ft 385 kts 243°
2026-04-26 02:45 34.12673 109.99700 15340 ft 385 kts 243°
2026-04-26 02:45 34.11356 109.96891 14948 ft 384 kts 243°
2026-04-26 02:45 34.10038 109.94080 14555 ft 385 kts 243°
2026-04-26 02:45 34.08720 109.91271 14192 ft 385 kts 242°
2026-04-26 02:46 34.07399 109.88460 13819 ft 385 kts 242°
2026-04-26 02:46 34.06080 109.85654 13425 ft 384 kts 242°
2026-04-26 02:46 34.04764 109.82856 13013 ft 382 kts 242°
2026-04-26 02:46 34.03456 109.80080 12610 ft 378 kts 242°
2026-04-26 02:47 34.02159 109.77326 12279 ft 374 kts 242°
2026-04-26 02:47 34.01014 109.74593 12096 ft 369 kts 253°
2026-04-26 02:47 34.00663 109.71553 11938 ft 367 kts 274°
2026-04-26 02:47 34.01198 109.68577 11770 ft 364 kts 290°
2026-04-26 02:48 34.02132 109.65746 11612 ft 363 kts 294°
2026-04-26 02:48 34.03092 109.62933 11448 ft 363 kts 291°
2026-04-26 02:48 34.03864 109.60038 11293 ft 362 kts 287°
2026-04-26 02:48 34.04508 109.57094 11135 ft 362 kts 286°
2026-04-26 02:49 34.05205 109.54184 10958 ft 360 kts 288°
2026-04-26 02:49 34.05962 109.51305 10796 ft 360 kts 288°
2026-04-26 02:49 34.06706 109.48424 10615 ft 360 kts 287°
2026-04-26 02:49 34.07405 109.45576 10464 ft 358 kts 287°
2026-04-26 02:50 34.08113 109.42693 10300 ft 358 kts 287°
2026-04-26 02:50 34.08835 109.39822 10142 ft 356 kts 288°
2026-04-26 02:50 34.09554 109.36957 9975 ft 355 kts 288°
2026-04-26 02:50 34.10264 109.34102 9809 ft 354 kts 288°
2026-04-26 02:51 34.10970 109.31255 9639 ft 353 kts 288°
2026-04-26 02:51 34.11672 109.28432 9435 ft 345 kts 287°
2026-04-26 02:51 34.12345 109.25723 9256 ft 328 kts 287°
2026-04-26 02:51 34.12983 109.23148 9051 ft 313 kts 287°
2026-04-26 02:52 34.13593 109.20687 8930 ft 297 kts 287°
2026-04-26 02:52 34.14165 109.18375 8909 ft 278 kts 287°
2026-04-26 02:52 34.14700 109.16214 8915 ft 260 kts 287°
2026-04-26 02:52 34.15199 109.14193 8916 ft 243 kts 287°
2026-04-26 02:53 34.15668 109.12295 8910 ft 232 kts 287°
2026-04-26 02:53 34.16126 109.10443 8926 ft 229 kts 288°
2026-04-26 02:53 34.16580 109.08600 8923 ft 229 kts 287°
2026-04-26 02:53 34.17030 109.06778 8924 ft 229 kts 288°
2026-04-26 02:54 34.17485 109.04928 8926 ft 230 kts 288°
2026-04-26 02:54 34.17939 109.03081 8929 ft 229 kts 288°
2026-04-26 02:54 34.18393 109.01234 8934 ft 229 kts 288°
2026-04-26 02:54 34.18849 108.99381 8935 ft 230 kts 288°
2026-04-26 02:55 34.19304 108.97527 8928 ft 230 kts 288°
2026-04-26 02:55 34.19760 108.95669 8927 ft 231 kts 288°
2026-04-26 02:55 34.20219 108.93800 8757 ft 232 kts 287°
2026-04-26 02:55 34.20672 108.91950 8520 ft 228 kts 287°
2026-04-26 02:56 34.21122 108.90113 8265 ft 228 kts 287°
2026-04-26 02:56 34.21570 108.88282 8002 ft 227 kts 287°
2026-04-26 02:56 34.22020 108.86456 7748 ft 226 kts 288°
2026-04-26 02:56 34.22828 108.84852 7431 ft 226 kts 314°
2026-04-26 02:57 34.23975 108.83556 7159 ft 225 kts 316°
2026-04-26 02:57 34.25105 108.82292 6891 ft 224 kts 316°
2026-04-26 02:57 34.26246 108.81004 6610 ft 225 kts 315°
2026-04-26 02:57 34.27384 108.79711 6342 ft 224 kts 315°
2026-04-26 02:58 34.28514 108.78433 6055 ft 220 kts 314°
2026-04-26 02:58 34.29621 108.77177 5779 ft 216 kts 315°
2026-04-26 02:58 34.30834 108.76109 5443 ft 219 kts 333°
2026-04-26 02:58 34.32237 108.75401 5155 ft 218 kts 334°
2026-04-26 02:59 34.33624 108.74660 4931 ft 216 kts 333°
2026-04-26 02:59 34.34993 108.73926 4938 ft 217 kts 333°
2026-04-26 02:59 34.36384 108.73186 4938 ft 219 kts 333°
2026-04-26 02:59 34.37777 108.72447 4932 ft 218 kts 334°
2026-04-26 03:00 34.39169 108.71708 4938 ft 219 kts 333°
2026-04-26 03:00 34.40546 108.70974 4929 ft 219 kts 333°
2026-04-26 03:00 34.41943 108.70231 4941 ft 220 kts 333°
2026-04-26 03:00 34.43346 108.69486 4939 ft 220 kts 334°
2026-04-26 03:01 34.44752 108.68734 4933 ft 221 kts 333°
2026-04-26 03:01 34.46153 108.67988 4933 ft 219 kts 333°
2026-04-26 03:01 34.47547 108.67243 4938 ft 219 kts 333°
2026-04-26 03:01 34.48946 108.66500 4938 ft 219 kts 333°
2026-04-26 03:02 34.50340 108.65758 4937 ft 218 kts 333°
2026-04-26 03:02 34.51685 108.64906 4909 ft 217 kts 319°
2026-04-26 03:02 34.52542 108.63441 4917 ft 213 kts 291°
2026-04-26 03:02 34.52711 108.61679 4918 ft 213 kts 263°
2026-04-26 03:03 34.52154 108.60022 4915 ft 216 kts 235°
2026-04-26 03:03 34.51051 108.58813 4926 ft 217 kts 220°
2026-04-26 03:03 34.49835 108.57701 4800 ft 220 kts 219°
2026-04-26 03:03 34.48621 108.56592 4637 ft 217 kts 220°
2026-04-26 03:04 34.47422 108.55478 4467 ft 218 kts 220°
2026-04-26 03:04 34.46220 108.54357 4299 ft 217 kts 219°
2026-04-26 03:04 34.45022 108.53246 4127 ft 218 kts 219°
2026-04-26 03:04 34.43820 108.52131 3949 ft 216 kts 219°
2026-04-26 03:05 34.42632 108.51030 3933 ft 215 kts 219°
2026-04-26 03:05 34.41435 108.49922 3934 ft 217 kts 218°
2026-04-26 03:05 34.40241 108.48816 3930 ft 216 kts 219°
2026-04-26 03:05 34.39045 108.47706 3934 ft 217 kts 219°
2026-04-26 03:06 34.37844 108.46594 3933 ft 217 kts 218°
2026-04-26 03:06 34.36643 108.45485 3939 ft 217 kts 219°
2026-04-26 03:06 34.35442 108.44374 3936 ft 217 kts 219°
2026-04-26 03:06 34.34180 108.43375 3921 ft 220 kts 204°
2026-04-26 03:07 34.32675 108.43093 3920 ft 221 kts 178°
2026-04-26 03:07 34.31173 108.43502 3927 ft 222 kts 166°
2026-04-26 03:07 34.29676 108.44013 3931 ft 224 kts 166°
2026-04-26 03:07 34.28184 108.44538 3937 ft 224 kts 162°
2026-04-26 03:08 34.26948 108.45654 3913 ft 225 kts 129°
2026-04-26 03:08 34.26380 108.47375 3914 ft 227 kts 96°
2026-04-26 03:08 34.26654 108.49229 3917 ft 226 kts 64°
2026-04-26 03:08 34.27596 108.50735 3927 ft 225 kts 47°
2026-04-26 03:09 34.28648 108.52149 3936 ft 225 kts 47°
2026-04-26 03:09 34.29699 108.53569 3937 ft 226 kts 47°
2026-04-26 03:09 34.30733 108.54989 3947 ft 225 kts 48°
2026-04-26 03:09 34.31772 108.56420 3939 ft 227 kts 48°
2026-04-26 03:10 34.32808 108.57846 3942 ft 225 kts 47°
2026-04-26 03:10 34.33848 108.59274 3938 ft 226 kts 47°
2026-04-26 03:10 34.34871 108.60681 3935 ft 226 kts 47°
2026-04-26 03:10 34.35910 108.62109 3939 ft 226 kts 47°
2026-04-26 03:11 34.36950 108.63541 3932 ft 227 kts 47°
2026-04-26 03:11 34.37989 108.64971 3933 ft 226 kts 47°
2026-04-26 03:11 34.39025 108.66398 3927 ft 226 kts 47°
2026-04-26 03:11 34.40068 108.67833 3931 ft 226 kts 48°
2026-04-26 03:12 34.41106 108.69266 3933 ft 227 kts 47°
2026-04-26 03:12 34.42148 108.70702 3933 ft 227 kts 47°
2026-04-26 03:12 34.43193 108.72139 3941 ft 227 kts 47°
2026-04-26 03:12 34.44227 108.73576 3931 ft 227 kts 48°
2026-04-26 03:13 34.45444 108.74758 3906 ft 225 kts 22°
2026-04-26 03:13 34.46920 108.75311 3931 ft 222 kts 13°
2026-04-26 03:13 34.48429 108.75772 3936 ft 224 kts 13°
2026-04-26 03:13 34.49930 108.76306 3934 ft 225 kts 17°
2026-04-26 03:14 34.51393 108.76918 3934 ft 225 kts 18°
2026-04-26 03:14 34.52872 108.77542 3957 ft 224 kts 17°
2026-04-26 03:14 34.54357 108.78151 3922 ft 224 kts 18°
2026-04-26 03:14 34.55822 108.78748 3921 ft 223 kts 17°
2026-04-26 03:15 34.57299 108.79350 3926 ft 223 kts 17°
2026-04-26 03:15 34.58782 108.79925 3914 ft 224 kts 11°
2026-04-26 03:15 34.60289 108.79713 3915 ft 219 kts 337°
2026-04-26 03:15 34.61472 108.78571 3914 ft 219 kts 305°
2026-04-26 03:16 34.61978 108.76860 3916 ft 220 kts 274°
2026-04-26 03:16 34.61659 108.75065 3919 ft 220 kts 243°
2026-04-26 03:16 34.61147 108.74012 3934 ft 218 kts 238°
2026-04-26 03:16 34.60333 108.72453 3938 ft 220 kts 237°
2026-04-26 03:17 34.59521 108.70885 3940 ft 220 kts 238°
2026-04-26 03:17 34.58717 108.69302 3936 ft 220 kts 238°
2026-04-26 03:17 34.57917 108.67722 3941 ft 220 kts 238°
2026-04-26 03:17 34.57117 108.66149 3938 ft 219 kts 238°
2026-04-26 03:18 34.56060 108.64069 3932 ft 219 kts 238°
2026-04-26 03:18 34.55525 108.63009 3931 ft 218 kts 240°
2026-04-26 03:18 34.55144 108.61257 3900 ft 215 kts 271°
2026-04-26 03:18 34.55577 108.59552 3911 ft 216 kts 302°
2026-04-26 03:19 34.56724 108.58359 3915 ft 224 kts 334°
2026-04-26 03:19 34.58247 108.58109 3917 ft 224 kts
2026-04-26 03:19 34.59639 108.58916 3919 ft 226 kts 41°
2026-04-26 03:19 34.60540 108.60437 3935 ft 225 kts 59°
2026-04-26 03:20 34.61320 108.62097 3943 ft 227 kts 60°
2026-04-26 03:20 34.62097 108.63753 3942 ft 225 kts 60°
2026-04-26 03:20 34.62891 108.65398 3943 ft 226 kts 59°
2026-04-26 03:20 34.63612 108.67094 3919 ft 228 kts 73°
2026-04-26 03:21 34.63564 108.68967 3907 ft 222 kts 108°
2026-04-26 03:21 34.62688 108.70498 3916 ft 223 kts 141°
2026-04-26 03:21 34.61279 108.71198 3917 ft 221 kts 175°
2026-04-26 03:21 34.59789 108.70862 3921 ft 220 kts 207°
2026-04-26 03:22 34.58678 108.69607 3919 ft 220 kts 236°
2026-04-26 03:22 34.57906 108.68031 3937 ft 220 kts 240°
2026-04-26 03:22 34.57157 108.66414 3936 ft 219 kts 240°
2026-04-26 03:22 34.56394 108.64812 3941 ft 218 kts 240°
2026-04-26 03:23 34.55621 108.63217 3936 ft 220 kts 240°
2026-04-26 03:23 34.55137 108.61483 3892 ft 217 kts 269°
2026-04-26 03:23 34.55480 108.59742 3910 ft 216 kts 298°
2026-04-26 03:23 34.56553 108.58458 3912 ft 223 kts 331°
2026-04-26 03:24 34.58059 108.58080 3913 ft 223 kts
2026-04-26 03:24 34.59476 108.58750 3915 ft 225 kts 37°
2026-04-26 03:24 34.60441 108.60233 3935 ft 225 kts 59°
2026-04-26 03:24 34.61226 108.61892 3938 ft 228 kts 60°
2026-04-26 03:25 34.62008 108.63564 3938 ft 226 kts 60°
2026-04-26 03:25 34.62799 108.65209 3941 ft 226 kts 59°
2026-04-26 03:25 34.63550 108.66877 3933 ft 226 kts 68°
2026-04-26 03:25 34.63614 108.68749 3910 ft 223 kts 104°
2026-04-26 03:26 34.62831 108.70349 3919 ft 224 kts 138°
2026-04-26 03:26 34.61463 108.71169 3914 ft 221 kts 171°
2026-04-26 03:26 34.59956 108.70956 3920 ft 220 kts 203°
2026-04-26 03:26 34.58788 108.69802 3922 ft 218 kts 234°
2026-04-26 03:27 34.57997 108.68221 3936 ft 219 kts 240°
2026-04-26 03:27 34.57246 108.66603 3935 ft 220 kts 240°
2026-04-26 03:27 34.56486 108.65003 3937 ft 218 kts 240°
2026-04-26 03:27 34.55715 108.63412 3938 ft 220 kts 239°
2026-04-26 03:28 34.55147 108.61732 3875 ft 219 kts 264°
2026-04-26 03:28 34.55394 108.59943 3911 ft 215 kts 294°
2026-04-26 03:28 34.56384 108.58577 3913 ft 223 kts 326°
2026-04-26 03:28 34.57842 108.58067 3910 ft 224 kts 359°
2026-04-26 03:29 34.59319 108.58613 3914 ft 225 kts 33°
2026-04-26 03:29 34.60341 108.60036 3932 ft 225 kts 58°
2026-04-26 03:29 34.61127 108.61681 3940 ft 225 kts 60°
2026-04-26 03:29 34.61903 108.63343 3940 ft 227 kts 60°
2026-04-26 03:30 34.62695 108.64995 3944 ft 226 kts 59°
2026-04-26 03:30 34.63474 108.66662 3938 ft 226 kts 64°
2026-04-26 03:30 34.63651 108.68523 3912 ft 223 kts 100°
2026-04-26 03:30 34.62966 108.70187 3914 ft 223 kts 134°
2026-04-26 03:31 34.61649 108.71121 3913 ft 222 kts 166°
2026-04-26 03:31 34.60132 108.71038 3920 ft 219 kts 199°
2026-04-26 03:31 34.58910 108.69997 3924 ft 218 kts 230°
2026-04-26 03:31 34.58093 108.68427 3937 ft 219 kts 240°
2026-04-26 03:32 34.57356 108.66837 3937 ft 219 kts 240°
2026-04-26 03:32 34.56594 108.65227 3937 ft 220 kts 240°
2026-04-26 03:32 34.55820 108.63629 3934 ft 219 kts 239°
2026-04-26 03:32 34.55169 108.61933 3875 ft 220 kts 259°
2026-04-26 03:33 34.55320 108.60148 3909 ft 214 kts 290°
2026-04-26 03:33 34.56214 108.58718 3916 ft 222 kts 321°
2026-04-26 03:33 34.57655 108.58074 3911 ft 224 kts 355°
2026-04-26 03:33 34.59157 108.58491 3914 ft 225 kts 28°
2026-04-26 03:34 34.60241 108.59836 3926 ft 225 kts 57°
2026-04-26 03:34 34.61038 108.61486 3940 ft 227 kts 60°
2026-04-26 03:34 34.61813 108.63153 3941 ft 227 kts 60°
2026-04-26 03:34 34.62605 108.64809 3938 ft 225 kts 59°
2026-04-26 03:35 34.63395 108.66466 3938 ft 227 kts 62°
2026-04-26 03:35 34.63680 108.68284 3912 ft 224 kts 96°
2026-04-26 03:35 34.63098 108.70004 3912 ft 224 kts 129°
2026-04-26 03:35 34.61834 108.71056 3919 ft 222 kts 162°
2026-04-26 03:36 34.60313 108.71105 3916 ft 221 kts 195°
2026-04-26 03:36 34.59017 108.70148 3922 ft 219 kts 227°
2026-04-26 03:36 34.58175 108.68596 3932 ft 221 kts 240°
2026-04-26 03:36 34.57420 108.66975 3939 ft 221 kts 240°
2026-04-26 03:37 34.56665 108.65376 3936 ft 220 kts 240°
2026-04-26 03:37 34.55889 108.63771 3936 ft 221 kts 239°
2026-04-26 03:37 34.55205 108.62115 3887 ft 220 kts 254°
2026-04-26 03:37 34.55274 108.60314 3913 ft 214 kts 286°
2026-04-26 03:38 34.56109 108.58821 3919 ft 221 kts 319°
2026-04-26 03:38 34.57524 108.58089 3914 ft 225 kts 352°
2026-04-26 03:38 34.59041 108.58417 3914 ft 225 kts 26°
2026-04-26 03:38 34.60170 108.59702 3921 ft 224 kts 57°
2026-04-26 03:39 34.60968 108.61339 3944 ft 227 kts 60°
2026-04-26 03:39 34.61746 108.63010 3939 ft 227 kts 60°
2026-04-26 03:39 34.62527 108.64647 3940 ft 227 kts 59°
2026-04-26 03:39 34.63322 108.66300 3939 ft 227 kts 61°
2026-04-26 03:40 34.63692 108.68120 3909 ft 223 kts 93°
2026-04-26 03:40 34.63182 108.69872 3912 ft 224 kts 126°
2026-04-26 03:40 34.61962 108.71000 3919 ft 221 kts 160°
2026-04-26 03:40 34.60447 108.71145 3910 ft 221 kts 192°
2026-04-26 03:41 34.59114 108.70273 3923 ft 220 kts 224°
2026-04-26 03:41 34.58258 108.68767 3930 ft 220 kts 239°
2026-04-26 03:41 34.57502 108.67152 3940 ft 220 kts 240°
2026-04-26 03:41 34.56743 108.65537 3925 ft 219 kts 240°
2026-04-26 03:42 34.55975 108.63947 3937 ft 219 kts 239°
2026-04-26 03:42 34.55259 108.62328 3921 ft 218 kts 249°
2026-04-26 03:42 34.55223 108.60533 3910 ft 213 kts 282°
2026-04-26 03:42 34.55571 108.58776 3891 ft 217 kts 271°
2026-04-26 03:43 34.55023 108.57127 3904 ft 217 kts 227°
2026-04-26 03:43 34.53678 108.56351 3910 ft 221 kts 187°
2026-04-26 03:43 34.52153 108.56522 3916 ft 222 kts 166°
2026-04-26 03:43 34.50794 108.57427 3912 ft 226 kts 140°
2026-04-26 03:44 34.49896 108.58977 3914 ft 227 kts 117°
2026-04-26 03:44 34.49199 108.60691 3929 ft 226 kts 119°
2026-04-26 03:44 34.48380 108.62322 3936 ft 227 kts 124°
2026-04-26 03:44 34.47484 108.63907 3930 ft 228 kts 125°
2026-04-26 03:45 34.46595 108.65496 3927 ft 228 kts 125°
2026-04-26 03:45 34.45720 108.67098 3927 ft 228 kts 124°
2026-04-26 03:45 34.44849 108.68700 3927 ft 226 kts 124°
2026-04-26 03:45 34.43978 108.70290 3928 ft 227 kts 125°
2026-04-26 03:46 34.43102 108.71886 3937 ft 228 kts 124°
2026-04-26 03:46 34.42230 108.73482 3931 ft 226 kts 125°
2026-04-26 03:46 34.41369 108.75049 3944 ft 226 kts 125°
2026-04-26 03:47 34.39629 108.78220 3951 ft 227 kts 125°
2026-04-26 03:47 34.38753 108.79816 3949 ft 227 kts 125°
2026-04-26 03:47 34.37877 108.81411 3949 ft 228 kts 125°
2026-04-26 03:47 34.36997 108.83012 3945 ft 228 kts 124°
2026-04-26 03:48 34.36134 108.84588 3938 ft 224 kts 124°
2026-04-26 03:48 34.35601 108.86325 3896 ft 224 kts 90°
2026-04-26 03:48 34.36131 108.88036 3914 ft 221 kts 48°
2026-04-26 03:48 34.37436 108.88970 3930 ft 220 kts 18°
2026-04-26 03:49 34.38877 108.89598 3941 ft 220 kts 20°
2026-04-26 03:49 34.40244 108.90445 3933 ft 222 kts 31°
2026-04-26 03:49 34.41408 108.91666 3932 ft 222 kts 46°
2026-04-26 03:49 34.42391 108.93107 3936 ft 221 kts 50°
2026-04-26 03:50 34.43365 108.94537 3935 ft 222 kts 48°
2026-04-26 03:50 34.44384 108.95945 3937 ft 223 kts 47°
2026-04-26 03:50 34.45407 108.97342 3929 ft 221 kts 47°
2026-04-26 03:50 34.46428 108.98748 3922 ft 222 kts 47°
2026-04-26 03:51 34.47445 109.00162 3924 ft 221 kts 47°
2026-04-26 03:51 34.48461 109.01568 3918 ft 221 kts 47°
2026-04-26 03:51 34.49478 109.02972 3927 ft 221 kts 48°
2026-04-26 03:51 34.50486 109.04368 3925 ft 221 kts 48°
2026-04-26 03:52 34.51498 109.05771 3928 ft 221 kts 47°
2026-04-26 03:52 34.52510 109.07175 3925 ft 221 kts 48°
2026-04-26 03:52 34.53534 109.08553 3916 ft 220 kts 43°
2026-04-26 03:52 34.54884 109.09334 3895 ft 217 kts
2026-04-26 03:53 34.56334 109.09084 3910 ft 215 kts 337°
2026-04-26 03:53 34.57708 109.08377 3930 ft 214 kts 335°
2026-04-26 03:53 34.59048 109.07670 3918 ft 206 kts 334°
2026-04-26 03:53 34.60199 109.06673 3910 ft 204 kts 313°
2026-04-26 03:54 34.60971 109.05256 3899 ft 201 kts 292°
2026-04-26 03:54 34.61279 109.03611 3906 ft 200 kts 272°
2026-04-26 03:54 34.60890 109.02032 3916 ft 198 kts 243°
2026-04-26 03:54 34.60306 109.00501 3916 ft 200 kts 243°
2026-04-26 03:55 34.59492 108.99153 3935 ft 198 kts 231°
2026-04-26 03:55 34.58586 108.97872 3914 ft 195 kts 229°
2026-04-26 03:55 34.57704 108.96653 3928 ft 191 kts 230°
2026-04-26 03:55 34.56826 108.95441 3921 ft 191 kts 229°
2026-04-26 03:56 34.55948 108.94227 3911 ft 191 kts 230°
2026-04-26 03:56 34.55087 108.93042 3923 ft 190 kts 230°
2026-04-26 03:56 34.54207 108.91828 3915 ft 192 kts 230°
2026-04-26 03:56 34.53336 108.90630 3930 ft 188 kts 229°
2026-04-26 03:57 34.52459 108.89419 3853 ft 195 kts 229°
2026-04-26 03:57 34.51560 108.88179 3619 ft 195 kts 230°
2026-04-26 03:57 34.50667 108.86948 3360 ft 194 kts 229°
2026-04-26 03:57 34.49783 108.85723 3108 ft 191 kts 230°
2026-04-26 03:58 34.48918 108.84524 2868 ft 183 kts 229°
2026-04-26 03:58 34.48126 108.83434 2648 ft 160 kts 229°
2026-04-26 03:58 34.47410 108.82448 2443 ft 154 kts 229°
2026-04-26 03:58 34.46708 108.81479 2239 ft 153 kts 228°
2026-04-26 03:59 34.46005 108.80512 2045 ft 153 kts 228°
2026-04-26 03:59 34.45299 108.79539 1841 ft 154 kts 228°
2026-04-26 03:59 34.44593 108.78566 1650 ft 153 kts 227°
2026-04-26 03:59 34.43889 108.77600 1523 ft 147 kts 227°
2026-04-26 04:00 34.43371 108.76877 1523 ft 79 kts 228°
2026-04-26 04:00 34.43145 108.76563 1522 ft 23 kts 231°
2026-04-26 04:00 34.43055 108.76418 1523 ft 21 kts 231°
2026-04-26 04:00 34.42970 108.76271 1522 ft 21 kts 243°
2026-04-26 04:01 34.42931 108.76104 1524 ft 23 kts 278°
2026-04-26 04:01 34.43043 108.75960 1520 ft 24 kts 317°
2026-04-26 04:01 34.43156 108.75846 1521 ft 16 kts 336°
2026-04-26 04:01 34.43178 108.75844 1519 ft 0 kts
2026-04-26 04:02 34.43198 108.75846 1521 ft 5 kts
2026-04-26 04:02 34.43222 108.75851 1522 ft 5 kts 10°
2026-04-26 04:02 34.43264 108.75863 1523 ft 0 kts 13°